Terminal Aerodrome Forecast
Issued by NWS Knoxville/Tri Cities, TN

Home | Current Version | Previous Version | Text Only | Print | Product List | Glossary On
Versions: 1 2 3 4 5 6 7 8 9 10 11 12 13 14 15 16 17 18 19 20 21 22 23 24 25 26 27 28 29 30 31 32 33 34
000
FTUS44 KMRX 282320
TAFCHA
TAF
KCHA 282320Z 0100/0124 04004KT P6SM BKN100
     FM010400 10003KT P6SM OVC035
     FM010900 14005KT P6SM OVC020
     FM011400 16005KT P6SM OVC010=

USA.gov is the U.S. government's official web portal to all federal, state and local government web resources and services.